Time,TemperatureF,DewpointF,PressureIn,WindDirection,WindDirectionDegrees,WindSpeedMPH,WindSpeedGustMPH,Humidity,HourlyPrecipIn,Conditions,Clouds,dailyrainin,SoftwareType,DateUTC
2013-05-30 00:00:00,72.6,67.8,29.66,ENE,76,5.0,12.0,85,0.00,,---,0.00,VWS V14.01,2013-05-30 05:00:00,
2013-05-30 00:02:00,72.7,67.6,29.66,SE,129,6.0,11.0,84,0.00,,---,0.00,VWS V14.01,2013-05-30 05:02:00,
2013-05-30 00:07:00,72.9,67.4,29.65,East,91,5.0,13.0,83,0.00,,---,0.00,VWS V14.01,2013-05-30 05:07:00,
2013-05-30 00:12:00,73.0,67.5,29.65,SSE,166,11.0,14.0,83,0.00,,---,0.00,VWS V14.01,2013-05-30 05:12:00,
2013-05-30 00:17:00,73.3,67.5,29.66,ESE,120,8.0,14.0,82,0.00,,---,0.00,VWS V14.01,2013-05-30 05:17:00,
2013-05-30 00:23:00,73.5,67.3,29.65,SSE,149,5.0,17.0,81,0.00,,---,0.00,VWS V14.01,2013-05-30 05:23:00,
2013-05-30 00:28:00,73.5,67.0,29.65,ESE,120,5.0,17.0,80,0.00,,---,0.00,VWS V14.01,2013-05-30 05:28:00,
2013-05-30 00:30:00,73.4,66.9,29.65,ESE,106,2.0,17.0,80,0.00,,---,0.00,VWS V14.01,2013-05-30 05:30:00,
2013-05-30 00:33:00,73.3,66.8,29.65,South,186,5.0,14.0,80,0.00,,---,0.00,VWS V14.01,2013-05-30 05:33:00,
2013-05-30 00:38:00,73.4,66.9,29.65,SSE,154,5.0,14.0,80,0.00,,---,0.00,VWS V14.01,2013-05-30 05:38:00,
2013-05-30 00:43:00,73.1,66.9,29.66,West,260,3.0,14.0,81,0.00,,---,0.00,VWS V14.01,2013-05-30 05:43:00,
2013-05-30 00:48:00,73.1,66.9,29.66,East,98,6.0,14.0,81,0.00,,---,0.00,VWS V14.01,2013-05-30 05:48:00,
2013-05-30 00:53:00,73.0,66.8,29.66,South,179,3.0,14.0,81,0.00,,---,0.00,VWS V14.01,2013-05-30 05:53:00,
2013-05-30 00:58:00,72.8,67.0,29.66,SE,131,3.0,14.0,82,0.00,,---,0.00,VWS V14.01,2013-05-30 05:58:00,
2013-05-30 01:00:00,72.8,67.0,29.66,ESE,117,5.0,14.0,82,0.00,,---,0.00,VWS V14.01,2013-05-30 06:00:00,
2013-05-30 01:03:00,72.7,66.9,29.66,South,190,4.0,10.0,82,0.00,,---,0.00,VWS V14.01,2013-05-30 06:03:00,
2013-05-30 01:08:00,72.6,66.8,29.66,SE,141,4.0,10.0,82,0.00,,---,0.00,VWS V14.01,2013-05-30 06:08:00,
2013-05-30 01:13:00,72.4,66.6,29.66,SSE,148,4.0,11.0,82,0.00,,---,0.00,VWS V14.01,2013-05-30 06:13:00,
2013-05-30 01:19:00,72.3,66.5,29.66,SE,145,8.0,12.0,82,0.00,,---,0.00,VWS V14.01,2013-05-30 06:19:00,
2013-05-30 01:24:00,72.4,66.6,29.66,ENE,77,6.0,12.0,82,0.00,,---,0.00,VWS V14.01,2013-05-30 06:24:00,
2013-05-30 01:29:00,72.4,66.6,29.66,SSE,165,1.0,12.0,82,0.00,,---,0.00,VWS V14.01,2013-05-30 06:29:00,
2013-05-30 01:30:00,72.4,66.6,29.66,ESE,117,2.0,12.0,82,0.00,,---,0.00,VWS V14.01,2013-05-30 06:30:00,
2013-05-30 01:34:00,72.4,66.2,29.65,East,88,5.0,15.0,81,0.00,,---,0.00,VWS V14.01,2013-05-30 06:34:00,
2013-05-30 01:39:00,72.5,66.3,29.65,SSW,210,2.0,15.0,81,0.00,,---,0.00,VWS V14.01,2013-05-30 06:39:00,
2013-05-30 01:44:00,72.5,66.3,29.65,SE,131,11.0,15.0,81,0.00,,---,0.00,VWS V14.01,2013-05-30 06:44:00,
2013-05-30 01:49:00,72.5,66.0,29.65,SSE,148,4.0,15.0,80,0.00,,---,0.00,VWS V14.01,2013-05-30 06:49:00,
2013-05-30 01:54:00,72.4,66.2,29.65,SE,132,2.0,15.0,81,0.00,,---,0.00,VWS V14.01,2013-05-30 06:54:00,
2013-05-30 02:00:00,72.3,66.2,29.66,SW,219,3.0,8.0,81,0.00,,---,0.00,VWS V14.01,2013-05-30 07:00:00,
2013-05-30 02:05:00,72.4,65.9,29.66,SE,143,5.0,11.0,80,0.00,,---,0.00,VWS V14.01,2013-05-30 07:05:00,
2013-05-30 02:10:00,72.5,66.0,29.66,WSW,257,1.0,13.0,80,0.00,,---,0.00,VWS V14.01,2013-05-30 07:10:00,
2013-05-30 02:15:00,72.4,65.9,29.65,SSE,158,1.0,13.0,80,0.00,,---,0.00,VWS V14.01,2013-05-30 07:15:00,
2013-05-30 02:20:00,72.4,65.9,29.66,SSW,210,4.0,13.0,80,0.00,,---,0.00,VWS V14.01,2013-05-30 07:20:00,
2013-05-30 02:25:00,72.3,65.8,29.65,NNW,344,3.0,14.0,80,0.00,,---,0.00,VWS V14.01,2013-05-30 07:25:00,
2013-05-30 02:30:00,72.4,65.9,29.65,South,179,6.0,10.0,80,0.00,,---,0.00,VWS V14.01,2013-05-30 07:30:00,
2013-05-30 02:35:00,72.4,65.5,29.65,East,84,7.0,13.0,79,0.00,,---,0.00,VWS V14.01,2013-05-30 07:35:00,
2013-05-30 02:40:00,72.5,65.6,29.65,SE,143,2.0,13.0,79,0.00,,---,0.00,VWS V14.01,2013-05-30 07:40:00,
2013-05-30 02:45:00,72.6,65.7,29.65,SE,141,9.0,16.0,79,0.00,,---,0.00,VWS V14.01,2013-05-30 07:45:00,
2013-05-30 02:51:00,72.6,65.3,29.65,SSE,165,6.0,16.0,78,0.00,,---,0.00,VWS V14.01,2013-05-30 07:51:00,
2013-05-30 02:56:00,72.7,65.4,29.64,SE,139,3.0,16.0,78,0.00,,---,0.00,VWS V14.01,2013-05-30 07:56:00,
2013-05-30 03:00:00,72.7,65.1,29.65,South,179,4.0,16.0,77,0.00,,---,0.00,VWS V14.01,2013-05-30 08:00:00,
2013-05-30 03:01:00,72.7,65.1,29.65,SW,236,6.0,13.0,77,0.00,,---,0.00,VWS V14.01,2013-05-30 08:01:00,
2013-05-30 03:06:00,72.9,64.5,29.64,West,275,1.0,16.0,75,0.00,,---,0.00,VWS V14.01,2013-05-30 08:06:00,
2013-05-30 03:11:00,73.1,64.3,29.64,SSE,165,6.0,16.0,74,0.00,,---,0.00,VWS V14.01,2013-05-30 08:11:00,
2013-05-30 03:16:00,73.1,63.9,29.64,SSW,197,7.0,16.0,73,0.00,,---,0.00,VWS V14.01,2013-05-30 08:16:00,
2013-05-30 03:21:00,72.9,63.8,29.64,South,191,7.0,16.0,73,0.00,,---,0.00,VWS V14.01,2013-05-30 08:21:00,
2013-05-30 03:26:00,72.8,63.3,29.64,North,352,2.0,19.0,72,0.00,,---,0.00,VWS V14.01,2013-05-30 08:26:00,
2013-05-30 03:30:00,72.7,63.2,29.64,SE,132,2.0,19.0,72,0.00,,---,0.00,VWS V14.01,2013-05-30 08:30:00,
2013-05-30 03:31:00,72.6,63.5,29.63,NE,43,2.0,11.0,73,0.00,,---,0.00,VWS V14.01,2013-05-30 08:31:00,
2013-05-30 03:36:00,72.2,63.1,29.64,ESE,122,5.0,19.0,73,0.00,,---,0.00,VWS V14.01,2013-05-30 08:36:00,
2013-05-30 03:41:00,72.0,62.9,29.63,SW,235,2.0,19.0,73,0.00,,---,0.00,VWS V14.01,2013-05-30 08:41:00,
2013-05-30 03:47:00,71.8,62.7,29.63,SW,232,6.0,19.0,73,0.00,,---,0.00,VWS V14.01,2013-05-30 08:47:00,
2013-05-30 03:52:00,71.5,62.8,29.63,SE,145,4.0,19.0,74,0.00,,---,0.00,VWS V14.01,2013-05-30 08:52:00,
2013-05-30 03:57:00,71.1,62.8,29.63,SSE,159,5.0,19.0,75,0.00,,---,0.00,VWS V14.01,2013-05-30 08:57:00,
2013-05-30 04:00:00,71.0,62.7,29.64,WSW,256,6.0,19.0,75,0.00,,---,0.00,VWS V14.01,2013-05-30 09:00:00,
2013-05-30 04:02:00,70.9,62.6,29.64,SW,217,5.0,9.0,75,0.00,,---,0.00,VWS V14.01,2013-05-30 09:02:00,
2013-05-30 04:07:00,70.6,62.7,29.65,SSE,151,2.0,16.0,76,0.00,,---,0.00,VWS V14.01,2013-05-30 09:07:00,
2013-05-30 04:12:00,70.4,62.5,29.64,SW,228,0.0,16.0,76,0.00,,---,0.00,VWS V14.01,2013-05-30 09:12:00,
2013-05-30 04:17:00,70.1,62.2,29.64,South,169,3.0,16.0,76,0.00,,---,0.00,VWS V14.01,2013-05-30 09:17:00,
2013-05-30 04:22:00,69.8,62.3,29.64,WSW,243,6.0,16.0,77,0.00,,---,0.00,VWS V14.01,2013-05-30 09:22:00,
2013-05-30 04:27:00,69.6,62.1,29.64,SSW,200,4.0,16.0,77,0.00,,---,0.00,VWS V14.01,2013-05-30 09:27:00,
2013-05-30 04:30:00,69.6,62.4,29.64,SSW,210,5.0,16.0,78,0.00,,---,0.00,VWS V14.01,2013-05-30 09:30:00,
2013-05-30 04:32:00,69.5,62.3,29.64,SE,141,7.0,13.0,78,0.00,,---,0.00,VWS V14.01,2013-05-30 09:32:00,
2013-05-30 04:37:00,69.3,62.5,29.63,SE,125,1.0,13.0,79,0.00,,---,0.00,VWS V14.01,2013-05-30 09:37:00,
2013-05-30 04:42:00,69.0,62.2,29.63,SSW,204,3.0,13.0,79,0.00,,---,0.00,VWS V14.01,2013-05-30 09:42:00,
2013-05-30 04:48:00,68.8,62.0,29.63,South,176,9.0,14.0,79,0.00,,---,0.00,VWS V14.01,2013-05-30 09:48:00,
2013-05-30 04:53:00,68.7,61.9,29.63,SSE,162,2.0,14.0,79,0.00,,---,0.00,VWS V14.01,2013-05-30 09:53:00,
2013-05-30 04:58:00,68.5,61.7,29.64,SSE,152,6.0,14.0,79,0.00,,---,0.00,VWS V14.01,2013-05-30 09:58:00,
2013-05-30 05:00:00,68.5,61.7,29.63,SE,134,6.0,14.0,79,0.00,,---,0.00,VWS V14.01,2013-05-30 10:00:00,
2013-05-30 05:03:00,68.3,61.9,29.62,SSW,210,3.0,12.0,80,0.00,,---,0.00,VWS V14.01,2013-05-30 10:03:00,
2013-05-30 05:08:00,68.1,61.7,29.61,East,86,3.0,12.0,80,0.00,,---,0.00,VWS V14.01,2013-05-30 10:08:00,
2013-05-30 05:13:00,67.8,61.8,29.61,SSE,148,4.0,12.0,81,0.00,,---,0.00,VWS V14.01,2013-05-30 10:13:00,
2013-05-30 05:18:00,67.6,61.9,29.61,SE,138,4.0,12.0,82,0.00,,---,0.00,VWS V14.01,2013-05-30 10:18:00,
2013-05-30 05:23:00,67.4,62.1,29.61,South,184,5.0,12.0,83,0.00,,---,0.00,VWS V14.01,2013-05-30 10:23:00,
2013-05-30 05:28:00,67.2,61.5,29.61,SW,222,5.0,17.0,82,0.00,,---,0.00,VWS V14.01,2013-05-30 10:28:00,
2013-05-30 05:30:00,67.2,61.9,29.61,SSE,152,4.0,17.0,83,0.00,,---,0.00,VWS V14.01,2013-05-30 10:30:00,
2013-05-30 05:33:00,67.1,61.4,29.61,SSW,212,9.0,14.0,82,0.00,,---,0.00,VWS V14.01,2013-05-30 10:33:00,
2013-05-30 05:39:00,66.9,61.6,29.61,South,170,5.0,14.0,83,0.00,,---,0.00,VWS V14.01,2013-05-30 10:39:00,
2013-05-30 05:44:00,66.8,61.5,29.61,SE,124,4.0,14.0,83,0.00,,---,0.00,VWS V14.01,2013-05-30 10:44:00,
2013-05-30 05:49:00,66.7,61.0,29.61,NNW,346,1.0,14.0,82,0.00,,---,0.00,VWS V14.01,2013-05-30 10:49:00,
2013-05-30 05:54:00,66.7,61.0,29.61,SW,214,4.0,14.0,82,0.00,,---,0.00,VWS V14.01,2013-05-30 10:54:00,
2013-05-30 05:59:00,66.5,60.8,29.61,SSE,158,5.0,14.0,82,0.00,,---,0.00,VWS V14.01,2013-05-30 10:59:00,
2013-05-30 06:00:00,66.5,60.8,29.61,SSE,158,5.0,14.0,82,0.00,,---,0.00,VWS V14.01,2013-05-30 11:00:00,
2013-05-30 06:04:00,66.5,60.8,29.62,SSW,195,5.0,9.0,82,0.00,,---,0.00,VWS V14.01,2013-05-30 11:04:00,
2013-05-30 06:09:00,66.4,60.7,29.62,SSE,159,6.0,15.0,82,0.00,,---,0.00,VWS V14.01,2013-05-30 11:09:00,
2013-05-30 06:14:00,66.4,60.7,29.62,SE,129,6.0,15.0,82,0.00,,---,0.00,VWS V14.01,2013-05-30 11:14:00,
2013-05-30 06:19:00,66.3,61.0,29.63,South,181,17.0,19.0,83,0.00,,---,0.00,VWS V14.01,2013-05-30 11:19:00,
2013-05-30 06:24:00,66.2,60.9,29.64,SW,214,7.0,19.0,83,0.00,,---,0.00,VWS V14.01,2013-05-30 11:24:00,
2013-05-30 06:29:00,66.2,60.9,29.63,SE,135,4.0,8.0,83,0.00,,---,0.00,VWS V14.01,2013-05-30 11:29:00,
2013-05-30 06:30:00,66.2,60.9,29.63,SSW,192,3.0,19.0,83,0.00,,---,0.00,VWS V14.01,2013-05-30 11:30:00,
2013-05-30 06:34:00,66.1,60.8,29.64,South,180,6.0,12.0,83,0.00,,---,0.00,VWS V14.01,2013-05-30 11:34:00,
2013-05-30 06:40:00,66.2,60.9,29.64,WSW,253,3.0,12.0,83,0.00,,---,0.00,VWS V14.01,2013-05-30 11:40:00,
2013-05-30 06:45:00,66.1,60.8,29.64,SW,215,3.0,14.0,83,0.00,,---,0.00,VWS V14.01,2013-05-30 11:45:00,
2013-05-30 06:50:00,66.2,60.9,29.65,WSW,252,11.0,14.0,83,0.00,,---,0.00,VWS V14.01,2013-05-30 11:50:00,
2013-05-30 06:55:00,66.2,60.9,29.65,WNW,293,2.0,14.0,83,0.00,,---,0.00,VWS V14.01,2013-05-30 11:55:00,
2013-05-30 07:00:00,66.1,60.8,29.65,SE,139,2.0,9.0,83,0.00,,---,0.00,VWS V14.01,2013-05-30 12:00:00,
2013-05-30 07:05:00,66.4,61.1,29.65,SSW,210,5.0,13.0,83,0.00,,---,0.00,VWS V14.01,2013-05-30 12:05:00,
2013-05-30 07:10:00,66.7,61.0,29.66,SE,142,3.0,13.0,82,0.00,,---,0.00,VWS V14.01,2013-05-30 12:10:00,
2013-05-30 07:15:00,66.6,60.9,29.66,SW,218,2.0,13.0,82,0.00,,---,0.00,VWS V14.01,2013-05-30 12:15:00,
2013-05-30 07:20:00,66.4,60.7,29.66,SW,218,8.0,13.0,82,0.00,,---,0.00,VWS V14.01,2013-05-30 12:20:00,
2013-05-30 07:25:00,66.3,61.0,29.67,SE,129,1.0,13.0,83,0.00,,---,0.00,VWS V14.01,2013-05-30 12:25:00,
2013-05-30 07:30:00,66.3,61.0,29.67,ESE,117,5.0,13.0,83,0.00,,---,0.00,VWS V14.01,2013-05-30 12:30:00,
2013-05-30 07:31:00,66.2,60.9,29.67,SSW,212,1.0,11.0,83,0.00,,---,0.00,VWS V14.01,2013-05-30 12:31:00,
2013-05-30 07:36:00,66.2,60.9,29.67,SSE,159,7.0,11.0,83,0.00,,---,0.00,VWS V14.01,2013-05-30 12:36:00,
2013-05-30 07:41:00,66.3,61.0,29.67,East,95,4.0,13.0,83,0.00,,---,0.00,VWS V14.01,2013-05-30 12:41:00,
2013-05-30 07:46:00,66.3,61.0,29.67,SSW,198,4.0,13.0,83,0.00,,---,0.00,VWS V14.01,2013-05-30 12:46:00,
2013-05-30 07:51:00,66.3,61.0,29.67,South,174,8.0,13.0,83,0.00,,---,0.00,VWS V14.01,2013-05-30 12:51:00,
2013-05-30 07:56:00,66.5,61.2,29.66,SE,129,3.0,14.0,83,0.00,,---,0.00,VWS V14.01,2013-05-30 12:56:00,
2013-05-30 08:00:00,66.6,61.3,29.65,East,94,8.0,14.0,83,0.00,,---,0.00,VWS V14.01,2013-05-30 13:00:00,
2013-05-30 08:01:00,66.7,61.4,29.65,SW,224,6.0,10.0,83,0.00,,---,0.00,VWS V14.01,2013-05-30 13:01:00,
2013-05-30 08:06:00,67.4,61.7,29.65,NE,44,7.0,10.0,82,0.00,,---,0.00,VWS V14.01,2013-05-30 13:06:00,
2013-05-30 08:11:00,68.0,62.3,29.65,SW,231,3.0,10.0,82,0.00,,---,0.00,VWS V14.01,2013-05-30 13:11:00,
2013-05-30 08:16:00,68.6,62.2,29.65,ESE,123,5.0,10.0,80,0.00,,---,0.00,VWS V14.01,2013-05-30 13:16:00,
2013-05-30 08:21:00,68.8,62.0,29.65,ESE,113,7.0,10.0,79,0.00,,---,0.00,VWS V14.01,2013-05-30 13:21:00,
2013-05-30 08:27:00,68.7,62.3,29.65,SE,129,6.0,10.0,80,0.00,,---,0.00,VWS V14.01,2013-05-30 13:27:00,
2013-05-30 08:30:00,68.6,62.2,29.64,SSE,162,7.0,10.0,80,0.00,,---,0.00,VWS V14.01,2013-05-30 13:30:00,
2013-05-30 08:32:00,68.6,62.2,29.65,ESE,117,3.0,7.0,80,0.00,,---,0.00,VWS V14.01,2013-05-30 13:32:00,
2013-05-30 08:37:00,68.4,62.0,29.65,SSE,160,3.0,8.0,80,0.00,,---,0.00,VWS V14.01,2013-05-30 13:37:00,
2013-05-30 08:42:00,68.4,62.3,29.66,SSW,198,3.0,8.0,81,0.00,,---,0.00,VWS V14.01,2013-05-30 13:42:00,
2013-05-30 08:47:00,68.7,62.3,29.66,SE,131,1.0,8.0,80,0.00,,---,0.00,VWS V14.01,2013-05-30 13:47:00,
2013-05-30 08:52:00,68.9,62.5,29.67,ESE,111,4.0,9.0,80,0.00,,---,0.00,VWS V14.01,2013-05-30 13:52:00,
2013-05-30 08:57:00,69.0,62.6,29.67,SSE,167,4.0,9.0,80,0.00,,---,0.00,VWS V14.01,2013-05-30 13:57:00,
2013-05-30 09:00:00,69.1,62.7,29.67,SSE,148,3.0,9.0,80,0.00,,---,0.00,VWS V14.01,2013-05-30 14:00:00,
2013-05-30 09:02:00,69.4,63.0,29.66,SSW,206,3.0,7.0,80,0.00,,---,0.00,VWS V14.01,2013-05-30 14:02:00,
2013-05-30 09:07:00,69.5,62.7,29.66,ESE,117,4.0,14.0,79,0.00,,---,0.00,VWS V14.01,2013-05-30 14:07:00,
2013-05-30 09:12:00,69.7,62.9,29.66,SW,225,2.0,14.0,79,0.00,,---,0.00,VWS V14.01,2013-05-30 14:12:00,
2013-05-30 09:18:00,70.1,63.3,29.67,East,91,3.0,14.0,79,0.00,,---,0.00,VWS V14.01,2013-05-30 14:18:00,
2013-05-30 09:23:00,70.2,63.0,29.68,SE,127,8.0,15.0,78,0.00,,---,0.00,VWS V14.01,2013-05-30 14:23:00,
2013-05-30 09:28:00,69.6,62.4,29.67,ENE,68,7.0,17.0,78,0.00,,---,0.00,VWS V14.01,2013-05-30 14:28:00,
2013-05-30 09:30:00,69.6,62.4,29.67,SE,132,9.0,17.0,78,0.00,,---,0.00,VWS V14.01,2013-05-30 14:30:00,
2013-05-30 09:33:00,69.4,62.6,29.67,SSE,159,9.0,15.0,79,0.00,,---,0.00,VWS V14.01,2013-05-30 14:33:00,
2013-05-30 09:38:00,69.5,63.1,29.67,South,181,3.0,15.0,80,0.00,,---,0.00,VWS V14.01,2013-05-30 14:38:00,
2013-05-30 09:43:00,69.7,63.3,29.68,SW,228,3.0,15.0,80,0.00,,---,0.00,VWS V14.01,2013-05-30 14:43:00,
2013-05-30 09:48:00,69.8,63.4,29.68,SSE,155,7.0,15.0,80,0.00,,---,0.00,VWS V14.01,2013-05-30 14:48:00,
2013-05-30 09:53:00,70.2,63.8,29.67,SSE,155,5.0,15.0,80,0.00,,---,0.00,VWS V14.01,2013-05-30 14:53:00,
2013-05-30 09:58:00,70.3,63.8,29.67,SSE,167,1.0,15.0,80,0.00,,---,0.00,VWS V14.01,2013-05-30 14:58:00,
2013-05-30 10:00:00,70.3,63.5,29.67,SSE,151,5.0,15.0,79,0.00,,---,0.00,VWS V14.01,2013-05-30 15:00:00,
2013-05-30 10:03:00,70.1,63.3,29.67,SSW,201,7.0,11.0,79,0.00,,---,0.00,VWS V14.01,2013-05-30 15:03:00,
2013-05-30 10:08:00,69.8,63.4,29.67,SSE,148,8.0,13.0,80,0.00,,---,0.00,VWS V14.01,2013-05-30 15:08:00,
2013-05-30 10:14:00,69.6,63.2,29.67,East,96,6.0,13.0,80,0.00,,---,0.00,VWS V14.01,2013-05-30 15:14:00,
2013-05-30 10:18:00,69.5,63.1,29.67,SE,131,10.0,13.0,80,0.00,,---,0.00,VWS V14.01,2013-05-30 15:18:00,
2013-05-30 10:24:00,69.6,63.2,29.67,East,96,5.0,13.0,80,0.00,,---,0.00,VWS V14.01,2013-05-30 15:24:00,
2013-05-30 10:29:00,69.5,62.7,29.67,SSW,201,7.0,13.0,79,0.00,,---,0.00,VWS V14.01,2013-05-30 15:29:00,
2013-05-30 10:30:00,69.5,62.7,29.67,WSW,252,8.0,13.0,79,0.00,,---,0.00,VWS V14.01,2013-05-30 15:30:00,
2013-05-30 10:34:00,69.3,62.5,29.68,WSW,248,4.0,14.0,79,0.00,,---,0.00,VWS V14.01,2013-05-30 15:34:00,
2013-05-30 10:39:00,69.1,62.7,29.67,SSW,198,1.0,14.0,80,0.00,,---,0.00,VWS V14.01,2013-05-30 15:39:00,
2013-05-30 10:44:00,69.2,62.8,29.68,WNW,300,6.0,14.0,80,0.00,,---,0.00,VWS V14.01,2013-05-30 15:44:00,
2013-05-30 10:49:00,69.2,62.8,29.67,SW,214,8.0,14.0,80,0.00,,---,0.00,VWS V14.01,2013-05-30 15:49:00,
2013-05-30 10:54:00,69.2,62.8,29.68,WSW,253,4.0,14.0,80,0.00,,---,0.00,VWS V14.01,2013-05-30 15:54:00,
2013-05-30 10:59:00,69.6,63.2,29.68,West,262,2.0,4.0,80,0.00,,---,0.00,VWS V14.01,2013-05-30 15:59:00,
2013-05-30 11:00:00,69.5,63.1,29.67,West,276,2.0,14.0,80,0.00,,---,0.00,VWS V14.01,2013-05-30 16:00:00,
2013-05-30 11:04:00,69.8,63.0,29.68,SE,124,3.0,10.0,79,0.00,,---,0.00,VWS V14.01,2013-05-30 16:04:00,
2013-05-30 11:09:00,69.7,62.9,29.68,NW,319,2.0,11.0,79,0.00,,---,0.00,VWS V14.01,2013-05-30 16:09:00,
2013-05-30 11:14:00,69.4,62.2,29.68,East,95,8.0,11.0,78,0.00,,---,0.00,VWS V14.01,2013-05-30 16:14:00,
2013-05-30 11:20:00,69.2,62.4,29.68,WSW,240,4.0,12.0,79,0.00,,---,0.00,VWS V14.01,2013-05-30 16:20:00,
2013-05-30 11:25:00,69.0,62.2,29.68,SSE,165,5.0,12.0,79,0.00,,---,0.00,VWS V14.01,2013-05-30 16:25:00,
2013-05-30 11:30:00,69.0,62.2,29.68,ESE,115,1.0,3.0,79,0.00,,---,0.00,VWS V14.01,2013-05-30 16:30:00,
2013-05-30 11:35:00,69.0,62.6,29.68,SE,131,2.0,9.0,80,0.00,,---,0.00,VWS V14.01,2013-05-30 16:35:00,
2013-05-30 11:40:00,69.0,62.6,29.69,North,354,5.0,12.0,80,0.00,,---,0.00,VWS V14.01,2013-05-30 16:40:00,
2013-05-30 11:45:00,69.1,63.0,29.69,SW,219,4.0,14.0,81,0.00,,---,0.00,VWS V14.01,2013-05-30 16:45:00,
2013-05-30 11:50:00,69.0,63.3,29.69,SE,141,5.0,14.0,82,0.00,,---,0.00,VWS V14.01,2013-05-30 16:50:00,
2013-05-30 11:55:00,68.5,63.1,29.69,South,177,2.0,14.0,83,0.00,,---,0.00,VWS V14.01,2013-05-30 16:55:00,
2013-05-30 12:00:00,68.0,63.0,29.68,SW,215,8.0,10.0,84,0.00,,---,0.00,VWS V14.01,2013-05-30 17:00:00,
2013-05-30 12:05:00,67.5,62.8,29.69,East,93,7.0,10.0,85,0.00,,---,0.00,VWS V14.01,2013-05-30 17:05:00,
2013-05-30 12:10:00,67.1,63.1,29.69,South,170,2.0,10.0,87,0.01,,---,0.01,VWS V14.01,2013-05-30 17:10:00,
2013-05-30 12:15:00,66.9,62.9,29.69,SSW,210,8.0,13.0,87,0.01,,---,0.01,VWS V14.01,2013-05-30 17:15:00,
2013-05-30 12:20:00,66.7,63.0,29.69,WNW,290,1.0,13.0,88,0.01,,---,0.01,VWS V14.01,2013-05-30 17:20:00,
2013-05-30 12:25:00,66.7,63.4,29.69,SE,127,3.0,13.0,89,0.01,,---,0.01,VWS V14.01,2013-05-30 17:25:00,
2013-05-30 12:30:00,66.7,63.4,29.69,SW,214,4.0,13.0,89,0.01,,---,0.01,VWS V14.01,2013-05-30 17:30:00,
2013-05-30 12:31:00,66.7,63.4,29.69,South,170,4.0,11.0,89,0.02,,---,0.02,VWS V14.01,2013-05-30 17:31:00,
2013-05-30 12:36:00,66.6,63.3,29.69,South,188,7.0,11.0,89,0.02,,---,0.02,VWS V14.01,2013-05-30 17:36:00,
2013-05-30 12:41:00,66.3,63.0,29.69,WSW,250,4.0,12.0,89,0.02,,---,0.02,VWS V14.01,2013-05-30 17:41:00,
2013-05-30 12:46:00,66.0,63.0,29.69,SE,130,5.0,12.0,90,0.02,,---,0.02,VWS V14.01,2013-05-30 17:46:00,
2013-05-30 12:51:00,65.9,63.2,29.68,North,6,2.0,12.0,91,0.03,,---,0.03,VWS V14.01,2013-05-30 17:51:00,
2013-05-30 12:56:00,65.8,63.4,29.67,SE,132,1.0,12.0,92,0.03,,---,0.03,VWS V14.01,2013-05-30 17:56:00,
2013-05-30 13:00:00,65.9,63.5,29.67,SE,125,1.0,12.0,92,0.04,,---,0.04,VWS V14.01,2013-05-30 18:00:00,
2013-05-30 13:01:00,66.1,63.7,29.67,NW,304,3.0,3.0,92,0.04,,---,0.04,VWS V14.01,2013-05-30 18:01:00,
2013-05-30 13:06:00,66.4,64.0,29.67,SSE,165,5.0,10.0,92,0.04,,---,0.04,VWS V14.01,2013-05-30 18:06:00,
2013-05-30 13:11:00,66.5,64.1,29.65,SSE,148,2.0,11.0,92,0.04,,---,0.04,VWS V14.01,2013-05-30 18:11:00,
2013-05-30 13:16:00,66.6,63.9,29.64,East,84,2.0,11.0,91,0.04,,---,0.04,VWS V14.01,2013-05-30 18:16:00,
2013-05-30 13:21:00,66.7,64.0,29.62,ESE,106,7.0,11.0,91,0.04,,---,0.04,VWS V14.01,2013-05-30 18:21:00,
2013-05-30 13:26:00,66.7,63.7,29.61,ESE,122,9.0,11.0,90,0.04,,---,0.04,VWS V14.01,2013-05-30 18:26:00,
2013-05-30 13:30:00,66.7,64.0,29.61,SSE,148,5.0,11.0,91,0.04,,---,0.04,VWS V14.01,2013-05-30 18:30:00,
2013-05-30 13:32:00,66.8,63.8,29.60,SSE,151,2.0,13.0,90,0.03,,---,0.04,VWS V14.01,2013-05-30 18:32:00,
2013-05-30 13:37:00,66.8,63.8,29.60,ESE,103,7.0,14.0,90,0.03,,---,0.04,VWS V14.01,2013-05-30 18:37:00,
2013-05-30 13:42:00,66.7,63.4,29.59,East,84,3.0,14.0,89,0.04,,---,0.05,VWS V14.01,2013-05-30 18:42:00,
2013-05-30 13:47:00,66.5,63.5,29.60,WSW,241,1.0,14.0,90,0.05,,---,0.06,VWS V14.01,2013-05-30 18:47:00,
2013-05-30 13:52:00,66.4,63.4,29.60,SE,145,5.0,14.0,90,0.05,,---,0.06,VWS V14.01,2013-05-30 18:52:00,
2013-05-30 13:57:00,66.4,63.7,29.60,SE,140,10.0,15.0,91,0.05,,---,0.06,VWS V14.01,2013-05-30 18:57:00,
2013-05-30 14:00:00,66.4,63.7,29.60,SE,129,10.0,15.0,91,0.05,,---,0.06,VWS V14.01,2013-05-30 19:00:00,
2013-05-30 14:02:00,66.6,64.2,29.60,SSE,162,3.0,13.0,92,0.03,,---,0.07,VWS V14.01,2013-05-30 19:02:00,
2013-05-30 14:07:00,66.9,64.5,29.62,WSW,255,2.0,13.0,92,0.03,,---,0.07,VWS V14.01,2013-05-30 19:07:00,
2013-05-30 14:12:00,67.2,64.5,29.62,South,188,3.0,13.0,91,0.03,,---,0.07,VWS V14.01,2013-05-30 19:12:00,
2013-05-30 14:17:00,67.2,64.5,29.62,South,188,2.0,13.0,91,0.03,,---,0.07,VWS V14.01,2013-05-30 19:17:00,
2013-05-30 14:22:00,67.3,64.6,29.62,NNW,342,1.0,13.0,91,0.03,,---,0.07,VWS V14.01,2013-05-30 19:22:00,
2013-05-30 14:27:00,67.2,64.5,29.62,ESE,110,1.0,13.0,91,0.03,,---,0.07,VWS V14.01,2013-05-30 19:27:00,
2013-05-30 14:30:00,67.2,64.5,29.62,SSW,207,3.0,13.0,91,0.03,,---,0.07,VWS V14.01,2013-05-30 19:30:00,
2013-05-30 14:32:00,67.2,64.5,29.61,ESE,106,1.0,12.0,91,0.03,,---,0.07,VWS V14.01,2013-05-30 19:32:00,
2013-05-30 14:37:00,67.3,64.3,29.61,SSE,149,2.0,12.0,90,0.03,,---,0.07,VWS V14.01,2013-05-30 19:37:00,
2013-05-30 14:42:00,67.3,64.3,29.62,East,79,5.0,12.0,90,0.03,,---,0.07,VWS V14.01,2013-05-30 19:42:00,
2013-05-30 14:48:00,67.3,64.0,29.62,South,186,4.0,12.0,89,0.03,,---,0.07,VWS V14.01,2013-05-30 19:48:00,
2013-05-30 14:53:00,67.5,64.2,29.63,SE,132,10.0,12.0,89,0.03,,---,0.07,VWS V14.01,2013-05-30 19:53:00,
2013-05-30 14:58:00,67.7,64.3,29.62,West,263,1.0,12.0,89,0.03,,---,0.07,VWS V14.01,2013-05-30 19:58:00,
2013-05-30 15:00:00,67.8,64.4,29.63,SE,128,3.0,12.0,89,0.03,,---,0.07,VWS V14.01,2013-05-30 20:00:00,
2013-05-30 15:03:00,67.9,64.2,29.63,ENE,68,2.0,8.0,88,0.01,,---,0.07,VWS V14.01,2013-05-30 20:03:00,
2013-05-30 15:08:00,68.1,64.4,29.64,SSW,204,1.0,9.0,88,0.01,,---,0.07,VWS V14.01,2013-05-30 20:08:00,
2013-05-30 15:13:00,68.1,64.1,29.64,SSW,199,1.0,11.0,87,0.01,,---,0.07,VWS V14.01,2013-05-30 20:13:00,
2013-05-30 15:18:00,68.1,64.1,29.63,NW,304,5.0,11.0,87,0.01,,---,0.07,VWS V14.01,2013-05-30 20:18:00,
2013-05-30 15:23:00,68.0,63.7,29.63,SSE,152,2.0,11.0,86,0.01,,---,0.07,VWS V14.01,2013-05-30 20:23:00,
2013-05-30 15:28:00,67.9,63.6,29.63,SW,218,2.0,11.0,86,0.01,,---,0.07,VWS V14.01,2013-05-30 20:28:00,
2013-05-30 15:30:00,67.9,63.6,29.63,SSW,208,2.0,11.0,86,0.01,,---,0.07,VWS V14.01,2013-05-30 20:30:00,
2013-05-30 15:33:00,67.7,63.4,29.63,WSW,257,4.0,12.0,86,0.00,,---,0.07,VWS V14.01,2013-05-30 20:33:00,
2013-05-30 15:38:00,67.4,63.1,29.62,South,183,3.0,12.0,86,0.00,,---,0.07,VWS V14.01,2013-05-30 20:38:00,
2013-05-30 15:43:00,67.2,63.2,29.62,SW,228,1.0,12.0,87,0.00,,---,0.07,VWS V14.01,2013-05-30 20:43:00,
2013-05-30 15:48:00,66.9,63.2,29.62,SSW,212,2.0,12.0,88,0.00,,---,0.07,VWS V14.01,2013-05-30 20:48:00,
2013-05-30 15:53:00,66.6,62.9,29.62,West,259,4.0,12.0,88,0.01,,---,0.08,VWS V14.01,2013-05-30 20:53:00,
2013-05-30 15:58:00,66.4,63.1,29.62,NW,314,1.0,12.0,89,0.01,,---,0.08,VWS V14.01,2013-05-30 20:58:00,
2013-05-30 16:00:00,66.3,63.0,29.62,SE,132,1.0,12.0,89,0.01,,---,0.08,VWS V14.01,2013-05-30 21:00:00,
2013-05-30 16:03:00,66.2,63.2,29.62,SE,129,2.0,6.0,90,0.01,,---,0.08,VWS V14.01,2013-05-30 21:03:00,
2013-05-30 16:08:00,66.1,63.4,29.61,ESE,122,0.0,6.0,91,0.01,,---,0.08,VWS V14.01,2013-05-30 21:08:00,
2013-05-30 16:13:00,66.3,63.6,29.59,East,81,0.0,6.0,91,0.01,,---,0.08,VWS V14.01,2013-05-30 21:13:00,
2013-05-30 16:18:00,66.5,63.8,29.59,SSE,166,3.0,6.0,91,0.01,,---,0.08,VWS V14.01,2013-05-30 21:18:00,
2013-05-30 16:23:00,66.6,63.9,29.59,South,170,1.0,7.0,91,0.01,,---,0.08,VWS V14.01,2013-05-30 21:23:00,
2013-05-30 16:28:00,66.7,63.7,29.59,SSE,160,1.0,7.0,90,0.01,,---,0.08,VWS V14.01,2013-05-30 21:28:00,
2013-05-30 16:30:00,66.7,63.7,29.59,SSW,208,1.0,7.0,90,0.01,,---,0.08,VWS V14.01,2013-05-30 21:30:00,
2013-05-30 16:34:00,67.0,63.7,29.58,SE,136,0.0,6.0,89,0.01,,---,0.08,VWS V14.01,2013-05-30 21:34:00,
2013-05-30 16:39:00,67.5,63.8,29.58,SW,228,3.0,7.0,88,0.01,,---,0.08,VWS V14.01,2013-05-30 21:39:00,
2013-05-30 16:44:00,67.9,64.2,29.58,South,190,0.0,7.0,88,0.01,,---,0.08,VWS V14.01,2013-05-30 21:44:00,
2013-05-30 16:49:00,68.4,63.7,29.58,West,271,3.0,7.0,85,0.01,,---,0.08,VWS V14.01,2013-05-30 21:49:00,
2013-05-30 16:54:00,68.8,63.4,29.58,ESE,102,3.0,14.0,83,0.01,,---,0.08,VWS V14.01,2013-05-30 21:54:00,
2013-05-30 16:59:00,69.0,63.3,29.58,SW,236,9.0,14.0,82,0.01,,---,0.08,VWS V14.01,2013-05-30 21:59:00,
2013-05-30 17:00:00,69.0,62.9,29.58,South,177,7.0,14.0,81,0.01,,---,0.08,VWS V14.01,2013-05-30 22:00:00,
2013-05-30 17:04:00,69.4,63.3,29.58,SW,218,4.0,12.0,81,0.00,,---,0.08,VWS V14.01,2013-05-30 22:04:00,
2013-05-30 17:09:00,69.5,63.1,29.58,ESE,120,7.0,12.0,80,0.00,,---,0.08,VWS V14.01,2013-05-30 22:09:00,
2013-05-30 17:14:00,69.5,63.1,29.57,ENE,58,2.0,12.0,80,0.00,,---,0.08,VWS V14.01,2013-05-30 22:14:00,
2013-05-30 17:19:00,69.6,62.8,29.58,SSE,149,4.0,12.0,79,0.00,,---,0.08,VWS V14.01,2013-05-30 22:19:00,
2013-05-30 17:24:00,69.7,62.5,29.58,SSE,153,7.0,14.0,78,0.00,,---,0.08,VWS V14.01,2013-05-30 22:24:00,
2013-05-30 17:29:00,69.4,62.2,29.57,WSW,249,5.0,16.0,78,0.00,,---,0.08,VWS V14.01,2013-05-30 22:29:00,
2013-05-30 17:30:00,69.4,62.2,29.57,NNW,333,5.0,14.0,78,0.00,,---,0.08,VWS V14.01,2013-05-30 22:30:00,
2013-05-30 17:34:00,68.8,61.7,29.58,SW,217,4.0,16.0,78,0.00,,---,0.08,VWS V14.01,2013-05-30 22:34:00,
2013-05-30 17:39:00,68.4,61.6,29.58,West,267,3.0,17.0,79,0.00,,---,0.08,VWS V14.01,2013-05-30 22:39:00,
2013-05-30 17:45:00,68.2,61.5,29.58,SSW,196,7.0,17.0,79,0.00,,---,0.08,VWS V14.01,2013-05-30 22:45:00,
2013-05-30 17:50:00,68.1,61.7,29.59,WNW,297,1.0,17.0,80,0.00,,---,0.08,VWS V14.01,2013-05-30 22:50:00,
2013-05-30 17:55:00,68.3,61.9,29.59,SE,142,3.0,17.0,80,0.00,,---,0.08,VWS V14.01,2013-05-30 22:55:00,
2013-05-30 18:00:00,68.5,61.7,29.60,SSW,203,9.0,10.0,79,0.00,,---,0.08,VWS V14.01,2013-05-30 23:00:00,
2013-05-30 18:05:00,68.4,61.6,29.61,SSW,201,6.0,10.0,79,0.00,,---,0.08,VWS V14.01,2013-05-30 23:05:00,
2013-05-30 18:10:00,68.2,61.8,29.61,SW,215,12.0,12.0,80,0.00,,---,0.08,VWS V14.01,2013-05-30 23:10:00,
2013-05-30 18:15:00,68.2,61.8,29.61,WSW,241,4.0,12.0,80,0.00,,---,0.08,VWS V14.01,2013-05-30 23:15:00,
2013-05-30 18:20:00,68.2,61.8,29.61,WSW,240,3.0,12.0,80,0.00,,---,0.08,VWS V14.01,2013-05-30 23:20:00,
2013-05-30 18:25:00,68.4,62.0,29.62,NW,304,1.0,12.0,80,0.00,,---,0.08,VWS V14.01,2013-05-30 23:25:00,
2013-05-30 18:30:00,68.7,61.9,29.61,SSE,160,3.0,8.0,79,0.00,,---,0.08,VWS V14.01,2013-05-30 23:30:00,
2013-05-30 18:35:00,68.8,62.0,29.61,SSW,212,2.0,11.0,79,0.00,,---,0.08,VWS V14.01,2013-05-30 23:35:00,
2013-05-30 18:40:00,68.9,62.1,29.61,SE,132,4.0,11.0,79,0.00,,---,0.08,VWS V14.01,2013-05-30 23:40:00,
2013-05-30 18:45:00,69.1,62.0,29.60,WSW,250,2.0,11.0,78,0.00,,---,0.08,VWS V14.01,2013-05-30 23:45:00,
2013-05-30 18:50:00,69.5,62.3,29.60,SW,219,1.0,11.0,78,0.00,,---,0.08,VWS V14.01,2013-05-30 23:50:00,
2013-05-30 18:56:00,70.1,62.6,29.60,SW,228,2.0,11.0,77,0.00,,---,0.08,VWS V14.01,2013-05-30 23:56:00,
2013-05-30 19:00:00,70.3,62.8,29.60,South,176,3.0,11.0,77,0.00,,---,0.08,VWS V14.01,2013-05-31 00:00:00,
2013-05-30 19:01:00,70.5,63.0,29.60,SE,138,1.0,3.0,77,0.00,,---,0.08,VWS V14.01,2013-05-31 00:01:00,
2013-05-30 19:06:00,70.5,62.2,29.60,South,177,5.0,5.0,75,0.00,,---,0.08,VWS V14.01,2013-05-31 00:06:00,
2013-05-30 19:11:00,70.6,62.7,29.60,SSE,150,2.0,6.0,76,0.00,,---,0.08,VWS V14.01,2013-05-31 00:11:00,
2013-05-30 19:16:00,70.3,62.0,29.60,WSW,255,1.0,6.0,75,0.00,,---,0.08,VWS V14.01,2013-05-31 00:16:00,
2013-05-30 19:21:00,70.3,62.0,29.60,WSW,248,6.0,6.0,75,0.00,,---,0.08,VWS V14.01,2013-05-31 00:21:00,
2013-05-30 19:26:00,70.1,61.8,29.61,SSW,208,2.0,7.0,75,0.00,,---,0.08,VWS V14.01,2013-05-31 00:26:00,
2013-05-30 19:30:00,69.8,61.9,29.61,SE,134,3.0,7.0,76,0.00,,---,0.08,VWS V14.01,2013-05-31 00:30:00,
2013-05-30 19:31:00,69.6,61.7,29.62,SSW,212,5.0,12.0,76,0.00,,---,0.08,VWS V14.01,2013-05-31 00:31:00,
2013-05-30 19:36:00,69.1,61.6,29.62,WSW,252,1.0,12.0,77,0.00,,---,0.08,VWS V14.01,2013-05-31 00:36:00,
2013-05-30 19:41:00,68.7,61.6,29.62,SW,231,4.0,12.0,78,0.00,,---,0.08,VWS V14.01,2013-05-31 00:41:00,
2013-05-30 19:46:00,68.3,61.5,29.62,SE,139,3.0,12.0,79,0.00,,---,0.08,VWS V14.01,2013-05-31 00:46:00,
2013-05-30 19:51:00,68.0,61.2,29.62,West,263,3.0,12.0,79,0.00,,---,0.08,VWS V14.01,2013-05-31 00:51:00,
2013-05-30 19:57:00,67.8,61.4,29.62,SSW,210,1.0,12.0,80,0.00,,---,0.08,VWS V14.01,2013-05-31 00:57:00,
2013-05-30 20:00:00,67.7,61.3,29.62,SSW,198,2.0,12.0,80,0.00,,---,0.08,VWS V14.01,2013-05-31 01:00:00,
2013-05-30 20:02:00,67.7,61.7,29.63,SW,235,4.0,4.0,81,0.00,,---,0.08,VWS V14.01,2013-05-31 01:02:00,
2013-05-30 20:07:00,67.6,61.6,29.62,SSE,158,1.0,5.0,81,0.00,,---,0.08,VWS V14.01,2013-05-31 01:07:00,
2013-05-30 20:12:00,67.4,61.7,29.62,SE,146,1.0,5.0,82,0.00,,---,0.08,VWS V14.01,2013-05-31 01:12:00,
2013-05-30 20:17:00,67.3,61.6,29.63,SW,236,1.0,5.0,82,0.00,,---,0.08,VWS V14.01,2013-05-31 01:17:00,
2013-05-30 20:22:00,67.3,61.6,29.62,WSW,246,0.0,5.0,82,0.00,,---,0.08,VWS V14.01,2013-05-31 01:22:00,
2013-05-30 20:27:00,67.1,61.8,29.62,West,277,4.0,5.0,83,0.00,,---,0.08,VWS V14.01,2013-05-31 01:27:00,
2013-05-30 20:30:00,67.0,61.7,29.62,South,174,3.0,5.0,83,0.00,,---,0.08,VWS V14.01,2013-05-31 01:30:00,
2013-05-30 20:32:00,66.9,61.6,29.62,SSW,201,1.0,3.0,83,0.00,,---,0.08,VWS V14.01,2013-05-31 01:32:00,
2013-05-30 20:37:00,66.6,61.3,29.62,SSE,160,1.0,5.0,83,0.00,,---,0.08,VWS V14.01,2013-05-31 01:37:00,
2013-05-30 20:42:00,66.4,61.4,29.63,SW,226,2.0,5.0,84,0.00,,---,0.08,VWS V14.01,2013-05-31 01:42:00,
2013-05-30 20:47:00,66.2,61.2,29.63,SSW,198,0.0,5.0,84,0.00,,---,0.08,VWS V14.01,2013-05-31 01:47:00,
2013-05-30 20:52:00,65.9,61.3,29.63,SW,218,1.0,5.0,85,0.00,,---,0.08,VWS V14.01,2013-05-31 01:52:00,
2013-05-30 20:57:00,65.7,61.1,29.64,SW,215,0.0,5.0,85,0.00,,---,0.08,VWS V14.01,2013-05-31 01:57:00,
2013-05-30 21:00:00,65.6,61.3,29.64,SW,229,0.0,5.0,86,0.00,,---,0.08,VWS V14.01,2013-05-31 02:00:00,
2013-05-30 21:03:00,65.5,61.2,29.64,SE,143,2.0,3.0,86,0.00,,---,0.08,VWS V14.01,2013-05-31 02:03:00,
2013-05-30 21:08:00,65.3,61.0,29.64,SW,228,4.0,5.0,86,0.00,,---,0.08,VWS V14.01,2013-05-31 02:08:00,
2013-05-30 21:13:00,65.2,61.2,29.64,SE,129,2.0,5.0,87,0.00,,---,0.08,VWS V14.01,2013-05-31 02:13:00,
2013-05-30 21:18:00,65.1,61.1,29.64,SSE,156,2.0,5.0,87,0.00,,---,0.08,VWS V14.01,2013-05-31 02:18:00,
2013-05-30 21:23:00,65.0,61.0,29.65,SW,233,1.0,5.0,87,0.00,,---,0.08,VWS V14.01,2013-05-31 02:23:00,
2013-05-30 21:28:00,64.9,60.9,29.65,South,172,2.0,7.0,87,0.00,,---,0.08,VWS V14.01,2013-05-31 02:28:00,
2013-05-30 21:30:00,64.9,60.9,29.65,SW,226,1.0,7.0,87,0.00,,---,0.08,VWS V14.01,2013-05-31 02:30:00,
2013-05-30 21:33:00,64.8,60.8,29.65,SSW,203,0.0,1.0,87,0.00,,---,0.08,VWS V14.01,2013-05-31 02:33:00,
2013-05-30 21:38:00,64.7,61.1,29.65,ENE,75,1.0,5.0,88,0.00,,---,0.08,VWS V14.01,2013-05-31 02:38:00,
2013-05-30 21:43:00,64.6,61.0,29.65,SW,215,0.0,5.0,88,0.00,,---,0.08,VWS V14.01,2013-05-31 02:43:00,
2013-05-30 21:48:00,64.5,60.9,29.65,SE,139,1.0,5.0,88,0.00,,---,0.08,VWS V14.01,2013-05-31 02:48:00,
2013-05-30 21:53:00,64.4,61.1,29.66,SSE,150,1.0,5.0,89,0.00,,---,0.08,VWS V14.01,2013-05-31 02:53:00,
2013-05-30 21:58:00,64.3,61.0,29.66,SSE,151,1.0,5.0,89,0.00,,---,0.08,VWS V14.01,2013-05-31 02:58:00,
2013-05-30 22:00:00,64.2,60.9,29.66,SSE,152,1.0,5.0,89,0.00,,---,0.08,VWS V14.01,2013-05-31 03:00:00,
2013-05-30 22:03:00,64.1,60.8,29.66,South,187,2.0,4.0,89,0.00,,---,0.08,VWS V14.01,2013-05-31 03:03:00,
2013-05-30 22:08:00,64.0,60.7,29.67,East,98,1.0,4.0,89,0.00,,---,0.08,VWS V14.01,2013-05-31 03:08:00,
2013-05-30 22:14:00,63.8,60.8,29.67,South,179,4.0,6.0,90,0.00,,---,0.08,VWS V14.01,2013-05-31 03:14:00,
2013-05-30 22:19:00,63.8,60.8,29.67,SSW,200,3.0,6.0,90,0.00,,---,0.08,VWS V14.01,2013-05-31 03:19:00,
2013-05-30 22:24:00,63.6,60.6,29.67,SW,214,0.0,6.0,90,0.00,,---,0.08,VWS V14.01,2013-05-31 03:24:00,
2013-05-30 22:29:00,63.4,60.7,29.68,SE,129,0.0,6.0,91,0.00,,---,0.08,VWS V14.01,2013-05-31 03:29:00,
2013-05-30 22:30:00,63.4,60.7,29.68,SE,129,0.0,6.0,91,0.00,,---,0.08,VWS V14.01,2013-05-31 03:30:00,
2013-05-30 22:34:00,63.3,60.6,29.68,SSE,155,3.0,6.0,91,0.00,,---,0.08,VWS V14.01,2013-05-31 03:34:00,
2013-05-30 22:39:00,63.1,60.7,29.68,ESE,120,2.0,6.0,92,0.00,,---,0.08,VWS V14.01,2013-05-31 03:39:00,
2013-05-30 22:44:00,63.0,60.6,29.68,South,190,0.0,6.0,92,0.00,,---,0.08,VWS V14.01,2013-05-31 03:44:00,
2013-05-30 22:49:00,62.8,60.8,29.68,SW,219,1.0,6.0,93,0.00,,---,0.08,VWS V14.01,2013-05-31 03:49:00,
2013-05-30 22:54:00,62.7,60.7,29.68,SW,215,1.0,6.0,93,0.00,,---,0.08,VWS V14.01,2013-05-31 03:54:00,
2013-05-30 22:59:00,62.6,60.8,29.68,SE,145,0.0,1.0,94,0.00,,---,0.08,VWS V14.01,2013-05-31 03:59:00,
2013-05-30 23:00:00,62.6,60.8,29.68,SE,146,0.0,6.0,94,0.00,,---,0.08,VWS V14.01,2013-05-31 04:00:00,
2013-05-30 23:01:00,62.5,60.8,29.68,ESE,114,2.0,2.0,94,0.00,,---,0.08,VWS V14.01,2013-05-31 04:01:00,
2013-05-30 23:02:00,62.5,60.8,29.68,SE,134,0.0,2.0,94,0.00,,---,0.08,VWS V14.01,2013-05-31 04:02:00,
2013-05-30 23:07:00,62.4,60.7,29.68,SSW,202,0.0,2.0,94,0.00,,---,0.08,VWS V14.01,2013-05-31 04:07:00,
2013-05-30 23:12:00,62.3,60.6,29.68,SSE,158,0.0,2.0,94,0.00,,---,0.08,VWS V14.01,2013-05-31 04:12:00,
2013-05-30 23:17:00,62.3,60.6,29.69,WSW,238,1.0,2.0,94,0.00,,---,0.08,VWS V14.01,2013-05-31 04:17:00,
2013-05-30 23:22:00,62.2,60.8,29.68,SSW,212,1.0,3.0,95,0.00,,---,0.08,VWS V14.01,2013-05-31 04:22:00,
2013-05-30 23:27:00,62.3,60.8,29.68,SSW,201,1.0,4.0,95,0.00,,---,0.08,VWS V14.01,2013-05-31 04:27:00,
2013-05-30 23:30:00,62.3,60.8,29.69,SSW,197,2.0,4.0,95,0.00,,---,0.08,VWS V14.01,2013-05-31 04:30:00,
2013-05-30 23:32:00,62.4,61.0,29.69,SSE,152,2.0,3.0,95,0.00,,---,0.08,VWS V14.01,2013-05-31 04:32:00,
2013-05-30 23:37:00,62.4,61.0,29.68,South,187,0.0,4.0,95,0.00,,---,0.08,VWS V14.01,2013-05-31 04:37:00,
2013-05-30 23:42:00,62.4,61.0,29.69,South,180,2.0,5.0,95,0.00,,---,0.08,VWS V14.01,2013-05-31 04:42:00,
2013-05-30 23:47:00,62.4,61.0,29.69,SE,139,2.0,5.0,95,0.00,,---,0.08,VWS V14.01,2013-05-31 04:47:00,
2013-05-30 23:52:00,62.3,60.8,29.68,SE,137,0.0,5.0,95,0.00,,---,0.08,VWS V14.01,2013-05-31 04:52:00,
2013-05-30 23:57:00,62.4,60.7,29.68,SSE,153,0.0,5.0,94,0.00,,---,0.08,VWS V14.01,2013-05-31 04:57:00,